Weather History for Ketchikan, AK

Change the Weather History Date:

Wednesday, January 15, 2014

  Actual Average Record
Temperature  
Mean Temperature 44 °F -  
Max Temperature 46 °F 37 °F 58 °F (1981)
Min Temperature 42 °F 26 °F 5 °F (1971)
Degree Days  
Heating Degree Days 21    
Moisture  
Dew Point 41 °F    
Average Humidity 91    
Maximum Humidity 97    
Minimum Humidity 83    
Precipitation  
Precipitation 0.15 in - - ()
Sea Level Pressure  
Sea Level Pressure 30.42 in    
Wind  
Wind Speed 8 mph (SSE)    
Max Wind Speed 13 mph    
Max Gust Speed -    
Visibility 9 miles    
Events Rain    
Averages and records for this station are not official NWS values.
T = Trace of Precipitation, MM = Missing Value Source: NWS Daily Summary

Daily Weather History Graph

Daily Weather History Graph

Search for Another Location

Airport:

Trip Planner

Search our weather history database for the weather conditions in past years. The results will help you decide how hot, cold, wet, or windy it might be!

Date:

Astronomy

Jan. 15, 2014 Rise Set
Actual Time 8:04 AM AKST 3:49 PM AKST
Civil Twilight 7:20 AM AKST 4:32 PM AKST
Nautical Twilight 6:34 AM AKST 5:18 PM AKST
Astronomical Twilight 5:50 AM AKST 6:02 PM AKST
Moon 4:05 PM AKST (1/15) 7:14 AM AKST (1/15)
Length of Visible Light 9h 11m
Length of Day
7h 44m
Full, 100% of the Moon is Illuminated
Jan 15
Full
Jan 15
Full
Jan 23
Last Quarter
Jan 30
New
Feb 6
First Quarter

Hourly Weather History & Observations

Time (AKST) Temp. Windchill Dew Point Humidity Pressure Visibility Wind Dir Wind Speed Gust Speed Precip Events Conditions
12:53 AM 42.1 °F 37.1 °F 37.9 °F 85% 30.37 in 10.0 mi SE 8.1 mph - N/A   Overcast
1:53 AM 42.1 °F 37.7 °F 37.9 °F 85% 30.39 in 10.0 mi SSE 6.9 mph - N/A   Overcast
3:53 AM 42.1 °F 37.1 °F 37.9 °F 85% 30.43 in 10.0 mi SE 8.1 mph - N/A   Overcast
4:53 AM 43.0 °F 38.2 °F 39.9 °F 89% 30.44 in 10.0 mi SE 8.1 mph - N/A   Overcast
5:15 AM 42.8 °F 38.0 °F 39.2 °F 87% 30.44 in 10.0 mi SE 8.1 mph - N/A   Overcast
5:38 AM 42.8 °F 37.0 °F 41.0 °F 93% 30.44 in 10.0 mi SE 10.4 mph - N/A   Overcast
5:53 AM 43.0 °F 37.2 °F 41.0 °F 93% 30.45 in 10.0 mi SE 10.4 mph - N/A   Overcast
6:53 AM 43.0 °F 39.5 °F 39.9 °F 89% 30.46 in 10.0 mi SE 5.8 mph - N/A   Overcast
7:51 AM 42.8 °F 39.3 °F 39.2 °F 87% 30.46 in 10.0 mi SSE 5.8 mph - N/A   Overcast
7:53 AM 42.1 °F 38.4 °F 39.9 °F 92% 30.47 in 10.0 mi SSE 5.8 mph - N/A   Overcast
8:53 AM 42.1 °F 37.7 °F 39.9 °F 92% 30.47 in 10.0 mi SSE 6.9 mph - N/A   Overcast
9:53 AM 43.0 °F 38.8 °F 41.0 °F 93% 30.48 in 10.0 mi SSE 6.9 mph - N/A   Overcast
10:53 AM 43.0 °F 38.2 °F 41.0 °F 93% 30.48 in 5.0 mi SSE 8.1 mph - 0.00 in Rain Light Rain
11:53 AM 43.0 °F 37.7 °F 42.1 °F 97% 30.47 in 5.0 mi SE 9.2 mph - 0.01 in Rain Light Rain
12:53 PM 44.1 °F 39.0 °F 42.1 °F 93% 30.47 in 10.0 mi SE 9.2 mph - 0.00 in   Overcast
1:53 PM 44.1 °F 38.1 °F 43.0 °F 96% 30.46 in 10.0 mi SE 11.5 mph - N/A   Overcast
2:53 PM 44.1 °F 39.0 °F 42.1 °F 93% 30.46 in 10.0 mi SE 9.2 mph - N/A   Overcast
3:53 PM 45.0 °F 39.7 °F 42.1 °F 90% 30.44 in 10.0 mi SSE 10.4 mph - N/A   Overcast
4:53 PM 45.0 °F 41.8 °F 42.1 °F 90% 30.42 in 10.0 mi South 5.8 mph - N/A   Overcast
5:53 PM 45.0 °F 41.8 °F 42.1 °F 90% 30.39 in 10.0 mi SSE 5.8 mph - N/A   Overcast
6:53 PM 46.0 °F 41.0 °F 41.0 °F 83% 30.38 in 10.0 mi SSE 10.4 mph - N/A   Overcast
7:53 PM 45.0 °F 40.6 °F 42.1 °F 90% 30.36 in 10.0 mi South 8.1 mph - 0.01 in Rain Light Rain
8:53 PM 44.1 °F 39.0 °F 42.1 °F 93% 30.34 in 9.0 mi South 9.2 mph - 0.05 in Rain Light Rain
9:53 PM 44.1 °F 39.0 °F 42.1 °F 93% 30.34 in 5.0 mi South 9.2 mph - 0.02 in Rain Light Rain
10:53 PM 44.1 °F 37.7 °F 43.0 °F 96% 30.34 in 4.0 mi SSE 12.7 mph - 0.02 in Rain Light Rain
11:53 PM 44.1 °F 39.0 °F 43.0 °F 96% 30.34 in 3.0 mi South 9.2 mph - 0.04 in Rain Light Rain